FW9465 Weather Reports


Display with metric or nautical units.
time (UTC)temp
F
wind
direction
speed
MPH
gust
MPH
rain 1hr
in
rain 24hr
in
rain mn
in
humidity
%
barometer
mb
20260510214641 67 31 12.0 17.0 0.00 0.00 0.00 80 1016.3
20260510213739 67 43 14.0 21.0 0.00 0.00 0.00 81 1016.4
20260510212741 68 11 19.0 30.0 0.00 0.00 0.00 79 1016.7
20260510211741 69 24 9.0 14.0 0.00 0.00 0.00 77 1017.0
20260510210839 69 18 12.0 19.0 0.00 0.00 0.00 76 1016.7
20260510205840 69 13 15.0 22.0 0.00 0.00 0.00 76 1016.7
20260510204840 70 3 10.0 15.0 0.00 0.00 0.00 74 1016.1
20260510203840 71 11 11.0 15.0 0.00 0.00 0.00 72 1016.4
20260510201838 71 19 9.0 15.0 0.00 0.00 0.00 73 1016.6
20260510200856 71 34 9.0 15.0 0.00 0.00 0.00 72 1016.7
20260510195939 71 13 8.0 12.0 0.00 0.00 0.00 73 1016.4
20260510194938 71 21 9.0 13.0 0.00 0.00 0.00 74 1016.4
20260510193039 70 39 10.0 17.0 0.00 0.00 0.00 76 1016.7
20260510192137 70 66 7.0 13.0 0.00 0.00 0.00 76 1016.6
20260510191139 70 65 9.0 11.0 0.00 0.00 0.00 74 1016.5
20260510190141 70 35 8.0 11.0 0.00 0.00 0.00 73 1016.3
20260510185137 70 33 12.0 16.0 0.00 0.00 0.00 73 1016.2
20260510184157 70 14 14.0 18.0 0.00 0.00 0.00 72 1016.1
20260510183142 71 24 7.0 11.0 0.00 0.00 0.00 70 1016.2
20260510181240 72 42 8.0 13.0 0.00 0.00 0.00 67 1015.7
20260510180239 72 67 10.0 14.0 0.00 0.00 0.00 69 1015.7
20260510175239 70 87 6.0 10.0 0.00 0.00 0.00 70 1015.5
20260510174242 70 68 9.0 13.0 0.00 0.00 0.00 69 1015.9
20260510173239 71 30 6.0 10.0 0.00 0.00 0.00 68 1016.0
20260510172256 76 30 13.0 21.0 0.00 0.00 0.00 66 1015.8
20260510171240 79 40 5.0 9.0 0.00 0.00 0.00 67 1015.6
20260510165356 80 87 3.0 6.0 0.00 0.00 0.00 63 1015.2
20260510165240 80 90 2.0 4.0 0.00 0.00 0.00 64 1015.1
20260510164240 81 145 5.0 9.0 0.00 0.00 0.00 64 1014.7
20260510163238 80 163 9.0 12.0 0.00 0.00 0.00 65 1014.1
20260510162240 79 165 8.0 13.0 0.00 0.00 0.00 66 1014.0
20260510161241 78 164 10.0 12.0 0.00 0.00 0.00 66 1013.8
20260510160338 78 150 8.0 13.0 0.00 0.00 0.00 67 1013.8
20260510155437 78 159 16.0 21.0 0.00 0.00 0.00 66 1013.6
20260510154440 77 153 15.0 20.0 0.00 0.00 0.00 67 1013.2
20260510152439 77 145 6.0 14.0 0.00 0.00 0.00 66 1013.5
20260510151439 76 146 11.0 16.0 0.00 0.00 0.00 64 1013.8
20260510150537 76 122 5.0 11.0 0.00 0.00 0.00 63 1013.7
20260510145538 75 157 10.0 17.0 0.00 0.00 0.00 64 1013.7
20260510144540 75 145 10.0 14.0 0.00 0.00 0.00 63 1013.9
20260510144454 75 139 11.0 17.0 0.00 0.00 0.00 63 1013.9
20260510143538 75 147 7.0 11.0 0.00 0.00 0.00 62 1014.0
20260510142539 74 148 10.0 15.0 0.00 0.00 0.00 65 1014.1
20260510141538 73 111 4.0 9.0 0.00 0.00 0.00 66 1014.1
20260510140539 72 109 5.0 11.0 0.00 0.00 0.00 67 1014.4
20260510135554 72 118 6.0 10.0 0.00 0.00 0.00 68 1014.6
20260510132657 70 111 6.0 10.0 0.00 0.00 0.00 71 1014.4
20260510131638 70 108 5.0 9.0 0.00 0.00 0.00 73 1014.5
20260510130638 69 92 4.0 8.0 0.00 0.00 0.00 72 1014.4
20260510125639 69 119 7.0 12.0 0.00 0.00 0.00 72 1014.1
20260510124737 69 107 4.0 7.0 0.00 0.00 0.00 71 1014.0
20260510123753 69 105 5.0 7.0 0.00 0.00 0.00 73 1014.0
20260510122755 69 94 4.0 6.0 0.00 0.00 0.00 74 1013.9
20260510121838 69 87 6.0 9.0 0.00 0.00 0.00 74 1013.8
20260510120840 70 96 6.0 8.0 0.00 0.00 0.00 73 1013.4
20260510115838 70 100 9.0 11.0 0.00 0.00 0.00 73 1013.2
20260510114839 70 114 6.0 14.0 0.00 0.00 0.00 75 1013.3
20260510112937 71 90 10.0 13.0 0.00 0.00 0.00 75 1013.0
20260510111937 71 84 9.0 13.0 0.00 0.00 0.00 76 1012.8
20260510110937 71 92 7.0 12.0 0.00 0.00 0.00 77 1012.9
20260510105939 72 69 8.0 12.0 0.00 0.00 0.00 78 1012.9
20260510105039 72 64 6.0 9.0 0.00 0.00 0.00 79 1012.8
20260510104037 73 67 8.0 13.0 0.00 0.00 0.00 80 1012.7
20260510102055 74 67 6.0 9.0 0.00 0.00 0.00 80 1012.4
20260510101138 73 60 6.0 9.0 0.00 0.00 0.00 80 1012.2
20260510100139 73 85 4.0 5.0 0.00 0.00 0.00 82 1012.3
20260510095139 72 90 5.0 7.0 0.00 0.00 0.00 81 1012.1
20260510094238 72 49 4.0 6.0 0.00 0.00 0.00 80 1012.1
20260510093239 72 67 3.0 4.0 0.00 0.00 0.00 80 1011.9
20260510092254 72 92 0.0 3.0 0.00 0.00 0.00 80 1011.4
20260510091238 72 57 3.0 4.0 0.00 0.00 0.00 78 1011.3
20260510085354 72 22 3.0 4.0 0.00 0.00 0.00 79 1011.2
20260510084437 72 30 1.0 2.0 0.00 0.00 0.00 79 1011.4
20260510082553 73 45 3.0 4.0 0.00 0.00 0.00 79 1011.0
20260510081637 73 90 2.0 3.0 0.00 0.00 0.00 79 1010.5
20260510080639 73 102 1.0 5.0 0.00 0.00 0.00 77 1010.3
20260510075738 74 100 4.0 6.0 0.00 0.00 0.00 77 1010.1
20260510074737 74 117 2.0 6.0 0.00 0.00 0.00 77 1009.9
20260510073755 74 145 6.0 9.0 0.00 0.00 0.00 77 1009.7
20260510072738 74 158 8.0 12.0 0.00 0.00 0.00 77 1009.7
20260510071836 74 160 8.0 10.0 0.00 0.00 0.00 75 1009.8
20260510070836 74 138 5.0 6.0 0.00 0.00 0.00 73 1010.0
20260510065838 74 126 3.0 4.0 0.00 0.00 0.00 74 1010.3
20260510063838 72 67 0.0 1.0 0.00 0.00 0.00 74 1010.8
20260510061955 72 135 0.0 0.0 0.00 0.00 0.00 72 1009.8
20260510061037 73 157 4.0 5.0 0.00 0.00 0.00 71 1009.3
20260510060038 74 157 2.0 4.0 0.00 0.00 0.00 70 1009.2
20260510055037 74 158 5.0 7.0 0.00 0.00 0.00 69 1009.0
20260510054038 75 160 4.0 7.0 0.00 0.00 0.00 69 1008.9
20260510053136 75 159 5.0 9.0 0.00 0.00 0.00 68 1008.7
20260510051236 75 151 6.0 9.0 0.00 0.00 0.00 67 1008.6
20260510050336 75 156 8.0 11.0 0.00 0.00 0.00 67 1008.6
20260510045339 75 155 9.0 14.0 0.00 0.00 0.00 66 1008.5
20260510044340 75 148 8.0 12.0 0.00 0.00 0.00 65 1008.5
20260510043425 75 157 9.0 11.0 0.00 0.00 0.00 64 1008.4
20260510042443 76 157 7.0 9.0 0.00 0.00 0.00 63 1008.8
20260510041541 76 157 8.0 10.0 0.00 0.00 0.00 63 1008.8
20260510040625 76 157 5.0 8.0 0.00 0.00 0.00 63 1008.8
20260510035624 76 149 5.0 7.0 0.00 0.00 0.00 64 1009.0
20260510034626 77 149 5.0 7.0 0.00 0.00 0.00 63 1009.1
20260510033640 77 141 7.0 10.0 0.00 0.00 0.00 62 1008.9
20260510032624 77 157 5.0 7.0 0.00 0.00 0.00 61 1009.1
20260510031626 77 140 5.0 7.0 0.00 0.00 0.00 60 1008.9
20260510030722 78 146 6.0 7.0 0.00 0.00 0.00 58 1008.9
20260510025739 78 141 5.0 6.0 0.00 0.00 0.00 58 1008.7
20260510024724 79 157 6.0 8.0 0.00 0.00 0.00 57 1008.6
20260510023740 79 157 6.0 7.0 0.00 0.00 0.00 57 1008.6
20260510022725 79 157 7.0 8.0 0.00 0.00 0.00 57 1008.5
20260510021724 80 157 5.0 7.0 0.00 0.00 0.00 56 1008.5
20260510020723 80 157 5.0 6.0 0.00 0.00 0.00 55 1008.4
20260510020623 80 157 5.0 6.0 0.00 0.00 0.00 55 1008.3
20260510015625 81 157 6.0 7.0 0.00 0.00 0.00 55 1008.1
20260510014724 81 157 6.0 7.0 0.00 0.00 0.00 54 1008.1
20260510013725 82 157 6.0 8.0 0.00 0.00 0.00 53 1008.1
20260510012740 83 149 6.0 7.0 0.00 0.00 0.00 51 1007.9
20260510011726 84 153 5.0 6.0 0.00 0.00 0.00 48 1007.6
20260510010740 85 145 5.0 7.0 0.00 0.00 0.00 46 1007.5
20260510005724 87 139 5.0 7.0 0.00 0.00 0.00 45 1007.5
20260510004724 89 134 4.0 6.0 0.00 0.00 0.00 42 1007.5
20260510003724 90 157 3.0 4.0 0.00 0.00 0.00 40 1007.5
20260510002725 92 157 1.0 3.0 0.00 0.00 0.00 39 1007.3
20260509235824 95 168 2.0 5.0 0.00 0.00 0.00 34 1007.3
20260509234825 95 189 3.0 4.0 0.00 0.00 0.00 34 1007.5
20260509233841 95 200 1.0 4.0 0.00 0.00 0.00 35 1007.6
20260509232923 94 202 0.0 1.0 0.00 0.00 0.00 36 1007.6
20260509231924 93 173 3.0 6.0 0.00 0.00 0.00 35 1007.5
20260509230926 94 90 0.0 0.0 0.00 0.00 0.00 32 1007.5
20260509225925 95 157 3.0 5.0 0.00 0.00 0.00 33 1007.6
20260509224924 93 133 0.0 1.0 0.00 0.00 0.00 34 1007.6
20260509223925 92 67 1.0 2.0 0.00 0.00 0.00 34 1007.6
20260509222940 92 105 2.0 5.0 0.00 0.00 0.00 33 1007.6
20260509221024 93 67 1.0 4.0 0.00 0.00 0.00 33 1007.6
20260509220039 92 135 2.0 4.0 0.00 0.00 0.00 35 1007.7
20260509215122 90 342 2.0 4.0 0.00 0.00 0.00 37 1007.6